WZZ21LR LICA-EPWA

Flight info

Callsign WZZ21LR
Flight time 2h 13m
Altitude 38000
Route ARBUM DCT EVINO DCT KUTID DCT XOLTA/N0449F390 DCT VEBAL DCT XOMBA DCT KREMI DCT BABKO DCT ORTEB/N0459F340 DCT KONZI/N0392F200 DCT LOGDA
Aircraft A21N/M-SDE1E2E3FGIJ1J4RWXY/LB1

Departure

Time 2026-04-24 07:57
Airport Lamezia Terme Sant'Eufemia International Airport (LICA)

Arrival

Time 2026-04-24 10:10
Airport Warsaw Chopin Airport (EPWA)
Time Latitude Longitude Altitude Speed Heading
2026-04-24 07:16 38.90873 16.24449 37 ft 0 kts 51°
2026-04-24 07:34 38.90873 16.24448 37 ft 0 kts 51°
2026-04-24 07:52 38.90874 16.24450 37 ft 1 kts 51°
2026-04-24 07:53 38.90856 16.24465 37 ft 6 kts 187°
2026-04-24 07:53 38.90809 16.24485 37 ft 10 kts 114°
2026-04-24 07:53 38.90766 16.24579 37 ft 16 kts 141°
2026-04-24 07:53 38.90707 16.24711 38 ft 19 kts 97°
2026-04-24 07:54 38.90689 16.24872 38 ft 21 kts 98°
2026-04-24 07:54 38.90669 16.25039 38 ft 23 kts 99°
2026-04-24 07:54 38.90644 16.25247 39 ft 25 kts 98°
2026-04-24 07:54 38.90619 16.25471 38 ft 26 kts 98°
2026-04-24 07:55 38.90592 16.25707 38 ft 28 kts 98°
2026-04-24 07:55 38.90569 16.25900 38 ft 21 kts 98°
2026-04-24 07:55 38.90547 16.26092 39 ft 22 kts 98°
2026-04-24 07:55 38.90467 16.26217 36 ft 17 kts 151°
2026-04-24 07:56 38.90353 16.26276 39 ft 17 kts 187°
2026-04-24 07:56 38.90317 16.26142 39 ft 20 kts 279°
2026-04-24 07:56 38.90360 16.25776 38 ft 79 kts 278°
2026-04-24 07:56 38.90482 16.24715 39 ft 157 kts 278°
2026-04-24 07:57 38.90676 16.23270 696 ft 163 kts 279°
2026-04-24 07:57 38.90835 16.21796 1534 ft 174 kts 278°
2026-04-24 07:57 38.91015 16.20157 2149 ft 197 kts 279°
2026-04-24 07:57 38.91234 16.18346 2883 ft 215 kts 281°
2026-04-24 07:58 38.91475 16.16318 3477 ft 242 kts 280°
2026-04-24 07:58 38.91724 16.14092 4255 ft 259 kts 281°
2026-04-24 07:58 38.92251 16.11864 5241 ft 264 kts 301°
2026-04-24 07:58 38.93345 16.09965 6262 ft 267 kts 313°
2026-04-24 07:59 38.94574 16.08147 7261 ft 272 kts 313°
2026-04-24 07:59 38.95810 16.06315 8238 ft 277 kts 313°
2026-04-24 07:59 38.97074 16.04424 9230 ft 281 kts 314°
2026-04-24 07:59 38.98358 16.02497 10196 ft 286 kts 314°
2026-04-24 08:00 38.99704 16.00473 10687 ft 309 kts 314°
2026-04-24 08:00 39.01151 15.98291 11032 ft 333 kts 314°
2026-04-24 08:00 39.02736 15.95976 11338 ft 355 kts 318°
2026-04-24 08:00 39.04723 15.93963 11636 ft 372 kts 332°
2026-04-24 08:01 39.07093 15.92454 12037 ft 385 kts 338°
2026-04-24 08:01 39.09558 15.91027 12656 ft 391 kts 339°
2026-04-24 08:01 39.12054 15.89573 13342 ft 395 kts 339°
2026-04-24 08:01 39.14563 15.88099 14043 ft 398 kts 339°
2026-04-24 08:02 39.17099 15.86601 14657 ft 402 kts 338°
2026-04-24 08:02 39.19656 15.85098 15300 ft 405 kts 338°
2026-04-24 08:02 39.22230 15.83571 16014 ft 409 kts 338°
2026-04-24 08:02 39.24828 15.82029 16732 ft 413 kts 337°
2026-04-24 08:03 39.27416 15.80364 17444 ft 418 kts 332°
2026-04-24 08:03 39.29760 15.78175 18145 ft 424 kts 322°
2026-04-24 08:03 39.32020 15.75707 18787 ft 427 kts 321°
2026-04-24 08:03 39.34287 15.73195 19367 ft 430 kts 321°
2026-04-24 08:04 39.36565 15.70666 19929 ft 434 kts 321°
2026-04-24 08:04 39.38862 15.68120 20489 ft 437 kts 321°
2026-04-24 08:04 39.41179 15.65555 21034 ft 440 kts 321°
2026-04-24 08:04 39.43515 15.62983 21595 ft 443 kts 321°
2026-04-24 08:05 39.45868 15.60385 22166 ft 446 kts 321°
2026-04-24 08:05 39.48237 15.57763 22727 ft 449 kts 321°
2026-04-24 08:05 39.50619 15.55120 23276 ft 453 kts 321°
2026-04-24 08:05 39.53022 15.52459 23785 ft 456 kts 321°
2026-04-24 08:06 39.55445 15.49786 24235 ft 459 kts 321°
2026-04-24 08:06 39.57878 15.47090 24660 ft 462 kts 321°
2026-04-24 08:06 39.60325 15.44383 25180 ft 462 kts 321°
2026-04-24 08:06 39.62760 15.41671 25760 ft 461 kts 321°
2026-04-24 08:07 39.65190 15.38964 26324 ft 460 kts 321°
2026-04-24 08:07 39.67618 15.36266 26884 ft 459 kts 322°
2026-04-24 08:07 39.70219 15.33904 27444 ft 455 kts 332°
2026-04-24 08:07 39.73103 15.32243 27988 ft 452 kts 343°
2026-04-24 08:08 39.76156 15.31353 28538 ft 449 kts 353°
2026-04-24 08:08 39.79249 15.30864 29088 ft 448 kts 355°
2026-04-24 08:08 39.82345 15.30415 29665 ft 446 kts 355°
2026-04-24 08:09 39.88507 15.29490 30660 ft 444 kts 355°
2026-04-24 08:09 39.91571 15.29019 31120 ft 443 kts 355°
2026-04-24 08:09 39.94585 15.28554 31560 ft 442 kts 354°
2026-04-24 08:09 39.97633 15.28081 31992 ft 440 kts 354°
2026-04-24 08:10 40.00669 15.27609 32417 ft 439 kts 354°
2026-04-24 08:10 40.03703 15.27139 32812 ft 439 kts 354°
2026-04-24 08:10 40.06732 15.26667 33230 ft 437 kts 355°
2026-04-24 08:10 40.09756 15.26198 33655 ft 436 kts 355°
2026-04-24 08:11 40.12761 15.25731 34053 ft 435 kts 355°
2026-04-24 08:11 40.15764 15.25267 34362 ft 434 kts 355°
2026-04-24 08:11 40.18770 15.24800 34651 ft 434 kts 355°
2026-04-24 08:11 40.21770 15.24332 34935 ft 434 kts 354°
2026-04-24 08:12 40.24767 15.23868 35227 ft 434 kts 354°
2026-04-24 08:12 40.27766 15.23402 35498 ft 433 kts 354°
2026-04-24 08:12 40.30763 15.22936 35744 ft 434 kts 354°
2026-04-24 08:12 40.33763 15.22467 36017 ft 433 kts 354°
2026-04-24 08:13 40.36753 15.21997 36286 ft 432 kts 354°
2026-04-24 08:13 40.39710 15.21541 36550 ft 432 kts 355°
2026-04-24 08:13 40.42709 15.21433 36776 ft 431 kts
2026-04-24 08:13 40.45678 15.21941 37018 ft 430 kts
2026-04-24 08:14 40.48628 15.22607 37258 ft 430 kts 10°
2026-04-24 08:14 40.51572 15.23292 37473 ft 430 kts 10°
2026-04-24 08:14 40.54519 15.23974 37710 ft 429 kts 10°
2026-04-24 08:14 40.57458 15.24654 37941 ft 429 kts 10°
2026-04-24 08:15 40.60404 15.25329 38143 ft 429 kts 10°
2026-04-24 08:15 40.66240 15.26664 38183 ft 428 kts 10°
2026-04-24 08:16 40.72118 15.28005 38165 ft 428 kts 10°
2026-04-24 08:16 40.77991 15.29354 38166 ft 428 kts 10°
2026-04-24 08:17 40.83859 15.30703 38170 ft 428 kts 10°
2026-04-24 08:17 40.89718 15.32045 38167 ft 427 kts 10°
2026-04-24 08:18 40.95578 15.33391 38167 ft 427 kts 11°
2026-04-24 08:18 41.01439 15.34744 38170 ft 427 kts 11°
2026-04-24 08:19 41.07300 15.36109 38171 ft 427 kts 11°
2026-04-24 08:19 41.13152 15.37469 38169 ft 427 kts 11°
2026-04-24 08:20 41.19013 15.38831 38170 ft 428 kts 11°
2026-04-24 08:20 41.24844 15.40185 38168 ft 428 kts 11°
2026-04-24 08:21 41.30711 15.41552 38166 ft 428 kts 11°
2026-04-24 08:21 41.36583 15.42921 38172 ft 428 kts 11°
2026-04-24 08:22 41.42446 15.44287 38171 ft 428 kts 11°
2026-04-24 08:22 41.48305 15.45659 38171 ft 428 kts 11°
2026-04-24 08:23 41.54171 15.47035 38168 ft 427 kts 11°
2026-04-24 08:23 41.60028 15.48414 38168 ft 426 kts 11°
2026-04-24 08:24 41.65827 15.49779 38155 ft 425 kts 11°
2026-04-24 08:24 41.71650 15.51151 38153 ft 424 kts 11°
2026-04-24 08:25 41.77463 15.52524 38324 ft 425 kts 11°
2026-04-24 08:25 41.80377 15.53214 38552 ft 424 kts 11°
2026-04-24 08:25 41.83277 15.53898 38797 ft 423 kts 11°
2026-04-24 08:25 41.86174 15.54585 38976 ft 422 kts 11°
2026-04-24 08:26 41.89064 15.55272 39119 ft 421 kts 11°
2026-04-24 08:26 41.91949 15.55958 39220 ft 421 kts 11°
2026-04-24 08:26 41.94831 15.56640 39233 ft 420 kts 11°
2026-04-24 08:27 42.00588 15.58009 39216 ft 420 kts 11°
2026-04-24 08:27 42.06334 15.59383 39202 ft 419 kts 11°
2026-04-24 08:28 42.12074 15.60755 39188 ft 419 kts 11°
2026-04-24 08:28 42.17780 15.62120 39177 ft 419 kts 11°
2026-04-24 08:29 42.23514 15.63496 39169 ft 418 kts 11°
2026-04-24 08:29 42.29253 15.64871 39162 ft 418 kts 11°
2026-04-24 08:30 42.34976 15.66249 39164 ft 418 kts 11°
2026-04-24 08:30 42.40695 15.67631 39165 ft 417 kts 12°
2026-04-24 08:31 42.46412 15.69010 39164 ft 417 kts 11°
2026-04-24 08:31 42.52087 15.70382 39163 ft 417 kts 11°
2026-04-24 08:32 42.57794 15.71767 39163 ft 417 kts 12°
2026-04-24 08:32 42.63498 15.73154 39159 ft 416 kts 12°
2026-04-24 08:33 42.69207 15.74548 39158 ft 416 kts 12°
2026-04-24 08:33 42.74751 15.76746 39158 ft 415 kts 19°
2026-04-24 08:34 42.80240 15.79212 39159 ft 415 kts 19°
2026-04-24 08:34 42.85730 15.81665 39158 ft 415 kts 19°
2026-04-24 08:35 42.91214 15.84114 39158 ft 414 kts 19°
2026-04-24 08:35 42.96686 15.86565 39154 ft 414 kts 19°
2026-04-24 08:36 43.01227 15.88602 39158 ft 413 kts 19°
2026-04-24 08:36 43.06685 15.91056 39156 ft 413 kts 19°
2026-04-24 08:37 43.12146 15.93510 39154 ft 413 kts 19°
2026-04-24 08:37 43.17605 15.95973 39155 ft 413 kts 19°
2026-04-24 08:38 43.23055 15.98436 39150 ft 412 kts 19°
2026-04-24 08:38 43.28507 16.00903 39153 ft 412 kts 19°
2026-04-24 08:39 43.33930 16.03362 39146 ft 413 kts 19°
2026-04-24 08:39 43.39383 16.05840 39145 ft 413 kts 19°
2026-04-24 08:40 43.44838 16.08323 39143 ft 413 kts 19°
2026-04-24 08:40 43.50297 16.10814 39140 ft 413 kts 19°
2026-04-24 08:41 43.55757 16.13309 39141 ft 414 kts 19°
2026-04-24 08:41 43.61230 16.15815 39140 ft 414 kts 19°
2026-04-24 08:42 43.66679 16.18313 39139 ft 415 kts 19°
2026-04-24 08:42 43.72156 16.20832 39139 ft 414 kts 19°
2026-04-24 08:43 43.77631 16.23352 39141 ft 414 kts 19°
2026-04-24 08:43 43.83101 16.25876 39143 ft 415 kts 20°
2026-04-24 08:44 43.88584 16.28408 39143 ft 415 kts 20°
2026-04-24 08:44 43.94062 16.30952 39147 ft 414 kts 20°
2026-04-24 08:45 43.99489 16.33468 39143 ft 414 kts 20°
2026-04-24 08:45 44.04959 16.36009 39144 ft 413 kts 20°
2026-04-24 08:46 44.10397 16.38546 39152 ft 412 kts 20°
2026-04-24 08:46 44.15834 16.41082 39153 ft 412 kts 20°
2026-04-24 08:47 44.21259 16.43619 39150 ft 410 kts 20°
2026-04-24 08:47 44.26632 16.46141 39157 ft 409 kts 20°
2026-04-24 08:48 44.32033 16.48674 39155 ft 408 kts 20°
2026-04-24 08:48 44.37409 16.51201 39167 ft 408 kts 20°
2026-04-24 08:49 44.42785 16.53732 39166 ft 407 kts 20°
2026-04-24 08:49 44.48150 16.56264 39161 ft 406 kts 20°
2026-04-24 08:50 44.53508 16.58804 39166 ft 406 kts 20°
2026-04-24 08:50 44.58853 16.61337 39169 ft 405 kts 20°
2026-04-24 08:51 44.64197 16.63874 39168 ft 404 kts 20°
2026-04-24 08:51 44.69529 16.66412 39175 ft 405 kts 20°
2026-04-24 08:52 44.74831 16.68940 39172 ft 405 kts 20°
2026-04-24 08:52 44.80165 16.71488 39173 ft 405 kts 20°
2026-04-24 08:53 44.85504 16.74042 39176 ft 405 kts 20°
2026-04-24 08:53 44.90845 16.76606 39177 ft 405 kts 20°
2026-04-24 08:54 44.96160 16.79159 39177 ft 405 kts 20°
2026-04-24 08:54 45.01496 16.81732 39177 ft 405 kts 20°
2026-04-24 08:55 45.06838 16.84312 39176 ft 405 kts 20°
2026-04-24 08:55 45.12170 16.86889 39180 ft 405 kts 20°
2026-04-24 08:56 45.17500 16.89468 39181 ft 405 kts 20°
2026-04-24 08:56 45.22829 16.92051 39181 ft 405 kts 20°
2026-04-24 08:57 45.28157 16.94644 39179 ft 405 kts 20°
2026-04-24 08:57 45.33484 16.97240 39182 ft 404 kts 20°
2026-04-24 08:58 45.38805 16.99840 39174 ft 404 kts 20°
2026-04-24 08:58 45.44121 17.02441 39179 ft 404 kts 20°
2026-04-24 08:59 45.49395 17.05024 39176 ft 403 kts 20°
2026-04-24 08:59 45.54703 17.07631 39175 ft 403 kts 20°
2026-04-24 09:00 45.59997 17.10237 39180 ft 402 kts 20°
2026-04-24 09:00 45.65291 17.12850 39172 ft 402 kts 20°
2026-04-24 09:01 45.70557 17.15449 39172 ft 402 kts 20°
2026-04-24 09:01 45.75840 17.18064 39168 ft 401 kts 20°
2026-04-24 09:02 45.81119 17.20683 39167 ft 401 kts 20°
2026-04-24 09:02 45.86394 17.23307 39161 ft 401 kts 20°
2026-04-24 09:03 45.91662 17.25932 39163 ft 401 kts 20°
2026-04-24 09:03 45.96935 17.28564 39163 ft 401 kts 20°
2026-04-24 09:04 46.02260 17.30978 39159 ft 401 kts 18°
2026-04-24 09:04 46.07619 17.33250 39157 ft 401 kts 18°
2026-04-24 09:05 46.12952 17.35519 39156 ft 401 kts 18°
2026-04-24 09:05 46.18314 17.37802 39151 ft 402 kts 18°
2026-04-24 09:06 46.23684 17.40076 39155 ft 402 kts 18°
2026-04-24 09:06 46.29055 17.42326 39147 ft 402 kts 17°
2026-04-24 09:07 46.34408 17.44603 39150 ft 401 kts 17°
2026-04-24 09:07 46.42428 17.47982 39152 ft 401 kts 17°
2026-04-24 09:08 46.47788 17.50259 39155 ft 401 kts 17°
2026-04-24 09:08 46.53150 17.52546 39147 ft 401 kts 18°
2026-04-24 09:09 46.58500 17.54844 39135 ft 401 kts 18°
2026-04-24 09:09 46.63852 17.57169 39142 ft 401 kts 18°
2026-04-24 09:10 46.69208 17.59475 39143 ft 401 kts 17°
2026-04-24 09:10 46.74564 17.61775 39142 ft 401 kts 17°
2026-04-24 09:11 46.79917 17.64086 39139 ft 401 kts 17°
2026-04-24 09:11 46.85277 17.66387 39132 ft 401 kts 17°
2026-04-24 09:12 46.90626 17.68694 39137 ft 401 kts 17°
2026-04-24 09:12 46.95935 17.70987 39131 ft 401 kts 17°
2026-04-24 09:13 47.01287 17.73310 39132 ft 401 kts 17°
2026-04-24 09:13 47.06638 17.75643 39133 ft 401 kts 17°
2026-04-24 09:14 47.11989 17.77979 39137 ft 401 kts 17°
2026-04-24 09:14 47.17338 17.80323 39131 ft 401 kts 17°
2026-04-24 09:15 47.22679 17.82668 39128 ft 400 kts 17°
2026-04-24 09:15 47.28019 17.85016 39130 ft 400 kts 17°
2026-04-24 09:16 47.33315 17.87349 39128 ft 400 kts 17°
2026-04-24 09:16 47.38642 17.89718 39109 ft 400 kts 17°
2026-04-24 09:17 47.43960 17.92097 39109 ft 399 kts 17°
2026-04-24 09:17 47.49282 17.94458 39111 ft 399 kts 17°
2026-04-24 09:18 47.54604 17.96814 39112 ft 399 kts 17°
2026-04-24 09:18 47.59927 17.99190 39113 ft 399 kts 17°
2026-04-24 09:19 47.65239 18.01571 39113 ft 398 kts 17°
2026-04-24 09:19 47.70542 18.03960 39108 ft 398 kts 17°
2026-04-24 09:20 47.75781 18.06480 39103 ft 399 kts 22°
2026-04-24 09:20 47.80737 18.10229 39099 ft 400 kts 27°
2026-04-24 09:21 47.85648 18.14106 39092 ft 400 kts 26°
2026-04-24 09:21 47.90571 18.17988 39095 ft 400 kts 26°
2026-04-24 09:22 47.95494 18.21865 39088 ft 400 kts 26°
2026-04-24 09:22 48.00428 18.25741 39087 ft 401 kts 26°
2026-04-24 09:23 48.05354 18.29654 39089 ft 401 kts 26°
2026-04-24 09:23 48.10288 18.33561 39088 ft 402 kts 26°
2026-04-24 09:24 48.15196 18.37463 39085 ft 402 kts 26°
2026-04-24 09:24 48.20138 18.41371 39080 ft 402 kts 26°
2026-04-24 09:25 48.24244 18.44676 39081 ft 403 kts 26°
2026-04-24 09:25 48.29196 18.48607 39075 ft 403 kts 26°
2026-04-24 09:26 48.34155 18.52544 39075 ft 403 kts 26°
2026-04-24 09:26 48.39110 18.56522 39072 ft 403 kts 26°
2026-04-24 09:27 48.44059 18.60507 39069 ft 403 kts 26°
2026-04-24 09:27 48.49006 18.64507 39067 ft 403 kts 26°
2026-04-24 09:28 48.53952 18.68503 39070 ft 403 kts 26°
2026-04-24 09:28 48.58897 18.72515 39068 ft 403 kts 26°
2026-04-24 09:29 48.63796 18.76524 39063 ft 403 kts 26°
2026-04-24 09:29 48.68721 18.80575 39066 ft 403 kts 26°
2026-04-24 09:30 48.74478 18.85291 39063 ft 402 kts 26°
2026-04-24 09:30 48.78592 18.88595 39062 ft 402 kts 24°
2026-04-24 09:31 48.83657 18.92158 39067 ft 401 kts 22°
2026-04-24 09:31 48.88743 18.95621 39065 ft 400 kts 21°
2026-04-24 09:32 48.93827 18.99051 39057 ft 399 kts 22°
2026-04-24 09:32 48.98897 19.02533 39065 ft 399 kts 22°
2026-04-24 09:33 49.03930 19.06004 39068 ft 400 kts 22°
2026-04-24 09:33 49.09003 19.09515 39068 ft 400 kts 22°
2026-04-24 09:34 49.14063 19.13016 39065 ft 399 kts 22°
2026-04-24 09:34 49.19129 19.16537 39066 ft 400 kts 22°
2026-04-24 09:35 49.24194 19.20068 39069 ft 400 kts 22°
2026-04-24 09:35 49.29254 19.23596 39069 ft 399 kts 22°
2026-04-24 09:36 49.34311 19.27138 39071 ft 400 kts 22°
2026-04-24 09:36 49.39370 19.30688 39079 ft 399 kts 22°
2026-04-24 09:37 49.44424 19.34245 39077 ft 399 kts 22°
2026-04-24 09:37 49.49445 19.37777 39081 ft 399 kts 22°
2026-04-24 09:38 49.54501 19.41343 39072 ft 399 kts 22°
2026-04-24 09:38 49.59548 19.44941 39076 ft 399 kts 22°
2026-04-24 09:39 49.64598 19.48519 39072 ft 400 kts 22°
2026-04-24 09:39 49.69650 19.52102 39067 ft 400 kts 22°
2026-04-24 09:40 49.74710 19.55704 39059 ft 400 kts 22°
2026-04-24 09:40 49.79737 19.59291 39071 ft 400 kts 22°
2026-04-24 09:41 49.84794 19.62912 39051 ft 400 kts 22°
2026-04-24 09:41 49.89855 19.66552 39056 ft 400 kts 22°
2026-04-24 09:42 49.94905 19.70204 39050 ft 400 kts 22°
2026-04-24 09:42 49.99961 19.73849 39059 ft 401 kts 22°
2026-04-24 09:43 50.05017 19.77506 39057 ft 400 kts 21°
2026-04-24 09:43 50.10047 19.81132 39054 ft 400 kts 22°
2026-04-24 09:44 50.15099 19.84789 39054 ft 400 kts 22°
2026-04-24 09:44 50.20155 19.88467 39054 ft 401 kts 22°
2026-04-24 09:45 50.25208 19.92160 39051 ft 401 kts 22°
2026-04-24 09:45 50.30262 19.95851 39046 ft 401 kts 22°
2026-04-24 09:46 50.35320 19.99547 39045 ft 401 kts 22°
2026-04-24 09:46 50.40358 20.03245 38863 ft 396 kts 21°
2026-04-24 09:47 50.42858 20.05083 38568 ft 397 kts 21°
2026-04-24 09:47 50.45357 20.06924 38273 ft 398 kts 21°
2026-04-24 09:47 50.47865 20.08773 37992 ft 398 kts 21°
2026-04-24 09:47 50.50377 20.10628 37714 ft 399 kts 21°
2026-04-24 09:48 50.52855 20.12459 37441 ft 399 kts 22°
2026-04-24 09:48 50.55369 20.14318 37169 ft 400 kts 21°
2026-04-24 09:48 50.57894 20.16190 36905 ft 401 kts 22°
2026-04-24 09:48 50.60420 20.18066 36643 ft 401 kts 21°
2026-04-24 09:49 50.62945 20.19942 36381 ft 402 kts 22°
2026-04-24 09:49 50.65479 20.21823 36118 ft 402 kts 22°
2026-04-24 09:49 50.68012 20.23710 35866 ft 403 kts 22°
2026-04-24 09:49 50.70543 20.25598 35611 ft 403 kts 22°
2026-04-24 09:50 50.73083 20.27494 35231 ft 402 kts 22°
2026-04-24 09:50 50.75601 20.29377 34608 ft 399 kts 22°
2026-04-24 09:50 50.78110 20.31256 33916 ft 398 kts 22°
2026-04-24 09:50 50.80614 20.33133 33115 ft 398 kts 22°
2026-04-24 09:51 50.83119 20.35008 32300 ft 399 kts 22°
2026-04-24 09:51 50.85595 20.36864 31502 ft 399 kts 22°
2026-04-24 09:51 50.88106 20.38749 30710 ft 399 kts 22°
2026-04-24 09:51 50.90615 20.40639 29896 ft 399 kts 22°
2026-04-24 09:52 50.93128 20.42533 28969 ft 399 kts 22°
2026-04-24 09:52 50.95634 20.44424 28065 ft 399 kts 22°
2026-04-24 09:52 50.98146 20.46321 27135 ft 401 kts 22°
2026-04-24 09:52 51.00681 20.48235 26171 ft 405 kts 22°
2026-04-24 09:53 51.03240 20.50173 25224 ft 409 kts 22°
2026-04-24 09:53 51.05828 20.52133 24372 ft 414 kts 22°
2026-04-24 09:53 51.08433 20.54135 23650 ft 416 kts 22°
2026-04-24 09:53 51.11024 20.56134 22843 ft 412 kts 22°
2026-04-24 09:54 51.13616 20.58095 22232 ft 419 kts 22°
2026-04-24 09:54 51.16298 20.60127 21818 ft 430 kts 22°
2026-04-24 09:54 51.18983 20.62177 21372 ft 424 kts 22°
2026-04-24 09:54 51.21617 20.64190 20741 ft 414 kts 22°
2026-04-24 09:55 51.24185 20.66151 20094 ft 404 kts 22°
2026-04-24 09:55 51.26747 20.67844 19163 ft 396 kts 17°
2026-04-24 09:55 51.29323 20.69265 18050 ft 396 kts 17°
2026-04-24 09:55 51.31983 20.70709 16876 ft 401 kts 17°
2026-04-24 09:56 51.34579 20.72129 16036 ft 398 kts 17°
2026-04-24 09:56 51.37187 20.73577 15531 ft 396 kts 17°
2026-04-24 09:56 51.39799 20.75039 15271 ft 395 kts 18°
2026-04-24 09:56 51.42393 20.76495 15132 ft 395 kts 18°
2026-04-24 09:57 51.44939 20.77935 14646 ft 381 kts 18°
2026-04-24 09:57 51.47390 20.79318 14273 ft 364 kts 18°
2026-04-24 09:57 51.49722 20.80641 14022 ft 346 kts 18°
2026-04-24 09:57 51.51941 20.81891 13813 ft 329 kts 17°
2026-04-24 09:58 51.54047 20.83077 13570 ft 312 kts 17°
2026-04-24 09:58 51.56035 20.84201 13203 ft 295 kts 17°
2026-04-24 09:58 51.57923 20.85270 12808 ft 281 kts 17°
2026-04-24 09:58 51.59726 20.86279 12167 ft 276 kts 17°
2026-04-24 09:59 51.61538 20.87296 11456 ft 276 kts 17°
2026-04-24 09:59 51.63351 20.88320 10763 ft 276 kts 17°
2026-04-24 09:59 51.65182 20.89357 10102 ft 275 kts 17°
2026-04-24 09:59 51.66958 20.90357 9421 ft 273 kts 17°
2026-04-24 10:00 51.68743 20.91369 8758 ft 270 kts 17°
2026-04-24 10:00 51.70513 20.92371 8285 ft 269 kts 17°
2026-04-24 10:00 51.72272 20.93374 7830 ft 267 kts 17°
2026-04-24 10:00 51.74018 20.94367 7406 ft 265 kts 17°
2026-04-24 10:01 51.75751 20.95353 6960 ft 263 kts 16°
2026-04-24 10:01 51.77474 20.96334 6541 ft 262 kts 16°
2026-04-24 10:01 51.79186 20.97313 6115 ft 260 kts 16°
2026-04-24 10:01 51.80897 20.98291 5642 ft 260 kts 15°
2026-04-24 10:02 51.82596 20.99256 5271 ft 256 kts 15°
2026-04-24 10:02 51.84250 21.00199 5040 ft 247 kts 15°
2026-04-24 10:02 51.85844 21.01108 4809 ft 239 kts 15°
2026-04-24 10:02 51.87392 21.01994 4576 ft 232 kts 15°
2026-04-24 10:03 51.88892 21.02857 4367 ft 226 kts 15°
2026-04-24 10:03 51.90356 21.03697 4120 ft 220 kts 15°
2026-04-24 10:03 51.91782 21.04515 3897 ft 215 kts 16°
2026-04-24 10:03 51.93162 21.05294 3667 ft 211 kts 16°
2026-04-24 10:04 51.94527 21.06064 3493 ft 205 kts 16°
2026-04-24 10:04 51.95871 21.06822 3367 ft 204 kts 16°
2026-04-24 10:04 51.97211 21.07586 3283 ft 204 kts 17°
2026-04-24 10:04 51.98527 21.08339 3145 ft 196 kts 17°
2026-04-24 10:05 51.99778 21.09059 3023 ft 185 kts 17°
2026-04-24 10:05 52.00995 21.09643 2965 ft 181 kts
2026-04-24 10:05 52.02220 21.09406 2983 ft 179 kts 337°
2026-04-24 10:05 52.03324 21.08478 2985 ft 175 kts 328°
2026-04-24 10:06 52.04309 21.07516 2902 ft 158 kts 328°
2026-04-24 10:06 52.06053 21.05897 2631 ft 137 kts 331°
2026-04-24 10:06 52.06875 21.05179 2508 ft 135 kts 332°
2026-04-24 10:07 52.07690 21.04492 2168 ft 132 kts 330°
2026-04-24 10:07 52.08485 21.03763 1914 ft 132 kts 330°
2026-04-24 10:07 52.09284 21.03052 1752 ft 131 kts 332°
2026-04-24 10:07 52.10087 21.02386 1520 ft 132 kts 332°
2026-04-24 10:08 52.10897 21.01676 1366 ft 132 kts 330°
2026-04-24 10:08 52.11705 21.00967 1145 ft 132 kts 331°
2026-04-24 10:08 52.12510 21.00268 1030 ft 132 kts 329°
2026-04-24 10:08 52.13318 20.99561 837 ft 132 kts 329°
2026-04-24 10:09 52.14123 20.98851 671 ft 131 kts 328°
2026-04-24 10:09 52.14919 20.98131 518 ft 131 kts 329°
2026-04-24 10:09 52.15728 20.97449 366 ft 130 kts 329°
2026-04-24 10:09 52.16480 20.96787 350 ft 106 kts 332°
2026-04-24 10:10 52.16956 20.96376 347 ft 49 kts 332°
2026-04-24 10:10 52.17146 20.96256 344 ft 27 kts 354°
2026-04-24 10:10 52.17303 20.96246 348 ft 17 kts
2026-04-24 10:10 52.17384 20.96269 344 ft 19 kts 44°
2026-04-24 10:11 52.17358 20.96426 348 ft 16 kts 154°
2026-04-24 10:11 52.17250 20.96521 344 ft 19 kts 151°
2026-04-24 10:11 52.17129 20.96629 346 ft 21 kts 152°
2026-04-24 10:11 52.16993 20.96744 350 ft 23 kts 153°
2026-04-24 10:12 52.16846 20.96871 352 ft 24 kts 152°
2026-04-24 10:12 52.16715 20.96986 351 ft 15 kts 152°
2026-04-24 10:12 52.16704 20.97118 352 ft 11 kts 60°
2026-04-24 10:12 52.16777 20.97169 352 ft 14 kts 339°
2026-04-24 10:13 52.16833 20.97093 347 ft 8 kts 272°
2026-04-24 10:13 52.16839 20.97000 344 ft 0 kts 276°
2026-04-24 10:13 52.16840 20.96985 344 ft 3 kts 275°
2026-04-24 10:13 52.16840 20.96981 344 ft 0 kts 275°
2026-04-24 10:17 52.16840 20.96982 344 ft 0 kts 275°